Chrysopouli, Greece

5:13 AM EET on March 25, 2017 (GMT +0200)
Megas Alexandros

Weather History for LGKV - March, 2013

Change the Weather History Date:

Wednesday, March 27, 2013

  Actual Average Record
Temperature  
Mean Temperature 50 °F -  
Max Temperature 51 °F 54 °F 69 °F (2001)
Min Temperature 48 °F 42 °F 33 °F (2009)
Degree Days  
Heating Degree Days 16    
Moisture  
Dew Point 48 °F    
Average Humidity 92    
Maximum Humidity 100    
Minimum Humidity 76    
Precipitation  
Precipitation 0.00 in - - ()
Sea Level Pressure  
Sea Level Pressure 29.72 in    
Wind  
Wind Speed 6 mph ()    
Max Wind Speed 15 mph    
Max Gust Speed -    
Visibility 5.9 miles    
Events Rain    
Averages and records for this station are not official NWS values.
T = Trace of Precipitation, MM = Missing Value Source: Averaged Metar Reports

Daily Weather History Graph

Daily Weather History Graph

Search for Another Location

Airport or City:

Trip Planner

Search our weather history database for the weather conditions in past years. The results will help you decide how hot, cold, wet, or windy it might be!

Date:

Astronomy

Mar. 27, 2013 Rise Set
Actual Time 6:13 AM EET 6:41 PM EET
Civil Twilight 5:45 AM EET 7:08 PM EET
Nautical Twilight 5:13 AM EET 7:41 PM EET
Astronomical Twilight 4:40 AM EET 8:14 PM EET
Moon 7:04 PM EET (3/27) 5:53 AM EET (3/27)
Length of Visible Light 13h 22m
Length of Day
12h 27m
Full, 100% of the Moon is Illuminated
Mar 27
Full
Apr 3
Last Quarter
Apr 10
New
Apr 18
First Quarter
Apr 25
Full

Hourly Weather History & Observations

Time (EET) Temp. Dew Point Humidity Pressure Visibility Wind Dir Wind Speed Gust Speed Precip Events Conditions
12:50 AM 51.8 °F 51.8 °F 100% 29.59 in 6.2 mi Calm Calm - N/A   Mostly Cloudy
1:50 AM 51.8 °F 50.0 °F 94% 29.59 in 6.2 mi Calm Calm - N/A   Scattered Clouds
2:50 AM 50.0 °F 50.0 °F 100% 29.59 in 6.2 mi Calm Calm - N/A   Partly Cloudy
3:50 AM 50.0 °F 50.0 °F 100% 29.59 in 0.6 mi NE 5.8 mph - N/A   Partly Cloudy
4:20 AM 50.0 °F 48.2 °F 94% 29.59 in 5.0 mi East 6.9 mph - N/A   Scattered Clouds
4:50 AM 48.2 °F 48.2 °F 100% 29.59 in 6.2 mi East 6.9 mph - N/A   Scattered Clouds
5:20 AM 48.2 °F 48.2 °F 100% 29.62 in 6.2 mi East 4.6 mph - N/A   Scattered Clouds
5:50 AM 50.0 °F 48.2 °F 94% 29.62 in 6.2 mi East 6.9 mph - N/A   Mostly Cloudy
6:20 AM 50.0 °F 48.2 °F 94% 29.62 in 6.2 mi ENE 5.8 mph - N/A   Mostly Cloudy
6:50 AM 50.0 °F 48.2 °F 94% 29.65 in 6.2 mi Calm Calm - N/A   Mostly Cloudy
7:20 AM 50.0 °F 48.2 °F 94% 29.65 in 6.2 mi Calm Calm - N/A   Mostly Cloudy
7:50 AM 50.0 °F 46.4 °F 87% 29.68 in 6.2 mi East 6.9 mph - N/A   Mostly Cloudy
8:20 AM 50.0 °F 46.4 °F 87% 29.68 in 6.2 mi ESE 9.2 mph - N/A   Mostly Cloudy
8:50 AM 50.0 °F 46.4 °F 87% 29.71 in 6.2 mi East 9.2 mph - N/A   Mostly Cloudy
9:20 AM 50.0 °F 46.4 °F 87% 29.71 in 6.2 mi ENE 9.2 mph - N/A   Mostly Cloudy
9:50 AM 50.0 °F 46.4 °F 87% 29.71 in 6.2 mi ENE 10.4 mph - N/A   Mostly Cloudy
10:20 AM 51.8 °F 46.4 °F 82% 29.74 in 6.2 mi ENE 13.8 mph - N/A   Mostly Cloudy
10:50 AM 51.8 °F 44.6 °F 76% 29.71 in 6.2 mi ENE 15.0 mph - N/A   Mostly Cloudy
11:20 AM 51.8 °F 44.6 °F 76% 29.71 in 6.2 mi East 12.7 mph - N/A   Mostly Cloudy
11:50 AM 50.0 °F 46.4 °F 87% 29.71 in 6.2 mi East 13.8 mph - N/A Rain Light Rain
12:20 PM 48.2 °F 46.4 °F 93% 29.71 in 6.2 mi East 11.5 mph - N/A Rain Light Rain
12:50 PM 48.2 °F 46.4 °F 93% 29.74 in 6.2 mi East 11.5 mph - N/A Rain Light Rain
1:20 PM 48.2 °F 46.4 °F 93% 29.74 in 6.2 mi East 12.7 mph - N/A Rain Light Rain
1:50 PM 50.0 °F 48.2 °F 94% 29.74 in 3.1 mi East 11.5 mph - N/A Rain Rain
2:20 PM 50.0 °F 48.2 °F 94% 29.74 in 3.1 mi East 11.5 mph - N/A Rain Rain
2:50 PM 50.0 °F 48.2 °F 94% 29.74 in 4.3 mi East 10.4 mph - N/A Rain Light Rain
3:20 PM 51.8 °F 50.0 °F 94% 29.74 in 6.2 mi East 11.5 mph - N/A Rain Light Rain
3:50 PM 51.8 °F 48.2 °F 88% 29.74 in 6.2 mi East 10.4 mph - N/A   Mostly Cloudy
4:20 PM 51.8 °F 48.2 °F 88% 29.74 in 6.2 mi East 10.4 mph - N/A   Mostly Cloudy
4:50 PM 51.8 °F 48.2 °F 88% 29.74 in 6.2 mi East 10.4 mph - N/A   Mostly Cloudy
5:20 PM 51.8 °F 48.2 °F 88% 29.74 in 6.2 mi East 10.4 mph - N/A   Mostly Cloudy
5:50 PM 51.8 °F 48.2 °F 88% 29.74 in 6.2 mi East 9.2 mph - N/A   Mostly Cloudy
6:20 PM 51.8 °F 48.2 °F 88% 29.77 in 6.2 mi East 8.1 mph - N/A   Mostly Cloudy
6:50 PM 50.0 °F 48.2 °F 94% 29.77 in 6.2 mi East 8.1 mph - N/A   Mostly Cloudy
7:20 PM 50.0 °F 48.2 °F 94% 29.77 in 6.2 mi East 8.1 mph - N/A   Mostly Cloudy
7:50 PM 50.0 °F 48.2 °F 94% 29.80 in 6.2 mi East 8.1 mph - N/A   Mostly Cloudy
8:20 PM 50.0 °F 48.2 °F 94% 29.80 in 6.2 mi East 8.1 mph - N/A   Mostly Cloudy
8:50 PM 50.0 °F 48.2 °F 94% 29.80 in 6.2 mi East 8.1 mph - N/A   Mostly Cloudy
9:20 PM 50.0 °F 48.2 °F 94% 29.83 in 6.2 mi East 8.1 mph - N/A   Mostly Cloudy
9:50 PM 50.0 °F 48.2 °F 94% 29.83 in 6.2 mi ENE 8.1 mph - N/A   Mostly Cloudy
10:20 PM 50.0 °F 48.2 °F 94% 29.83 in 6.2 mi ENE 8.1 mph - N/A   Mostly Cloudy
10:50 PM 50.0 °F 48.2 °F 94% 29.83 in 6.2 mi ENE 4.6 mph - N/A   Mostly Cloudy
11:50 PM 50.0 °F 48.2 °F 94% 29.83 in 6.2 mi Calm Calm - N/A   Mostly Cloudy